Regional Weather Roundup
Issued by NWS Nashville, TN

Home | Current Version | Previous Version | Text Only | Print | Product List | Glossary On
Versions: 1 2 3 4 5 6 7 8 9 10 11 12 13 14 15 16 17 18 19 20 21 22 23 24 25 26 27 28 29 30 31 32 33 34 35 36 37 38 39 40 41 42 43 44 45 46 47 48 49 50
000
ASUS44 KOHX 200310
RWROHX
MIDDLE TENNESSEE HOURLY WEATHER ROUNDUP
NATIONAL WEATHER SERVICE NASHVILLE TN
1000 PM CDT TUE SEP 19 2017

NOTE: "FAIR" INDICATES FEW OR NO CLOUDS BELOW 12,000 FEET WITH
NO SIGNIFICANT WEATHER AND/OR OBSTRUCTIONS TO VISIBILITY.

* THESE REPORTS ARE NOT UNDER NWS QUALITY CONTROL AND MAY NOT
  REPORT WEATHER SUCH AS PRECIPITATION AND FOG.


TNZ005>011-023>034-057-059-062>066-078-080-200400
...NORTHERN MIDDLE TENNESSEE...

CITY           SKY/WX    TMP DP  RH WIND       PRES   REMARKS
CLARKSVILLE    CLEAR     70  67  90 SE5       29.94S
CROSSVILLE     CLEAR     63  61  93 CALM      30.05R
GALLATIN       MOCLDY    70  68  94 CALM      29.99S
DICKSON        CLEAR     71  66  84 S7        29.96S
LEBANON        CLEAR     67  66  96 CALM      29.96R
NASHVILLE      MOCLDY    70  69  97 S5        29.97R
PORTLAND       PTCLDY    72  68  88 S8        29.96R
SMYRNA         PTCLDY    73  68  83 S5        29.97
SPARTA         CLEAR     63  61  94 CALM      29.99S FOG
SPRINGFIELD    PTCLDY    68  68 100 CALM      29.95R
WEST NASHVILLE PTCLDY    68  68 100 CALM      29.95R
$$
TNZ056-058-060-061-075>077-079-093>097-200400
...SOUTHERN MIDDLE TENNESSEE...

CITY           SKY/WX    TMP DP  RH WIND       PRES   REMARKS
COLUMBIA       CLEAR     72 N/A N/A CALM      29.95S
MCMINNVILLE    MOCLDY    68  68 100 S3        30.00S
MURFREESBORO   PTCLDY    71  67  87 S5        29.97R
PULASKI        CLOUDY    70  68  94 CALM      29.98S
SHELBYVILLE    CLOUDY    66  66 100 SE3       29.99R
TULLAHOMA      CLEAR     66  64  94 CALM      30.02R
WINCHESTER     CLEAR     66  66 100 CALM      29.99F
$$


...KEY TO REMARKS...
VSB - VISIBILITY IN MILES
WCI - WIND CHILL INDEX
HX  - HEAT INDEX




USA.gov is the U.S. government's official web portal to all federal, state and local government web resources and services.